Time,TemperatureF,DewpointF,PressureIn,WindDirection,WindDirectionDegrees,WindSpeedMPH,WindSpeedGustMPH,Humidity,HourlyPrecipIn,Conditions,Clouds,dailyrainin,SoftwareType,DateUTC
2013-02-10 00:00:00,21.2,20.0,30.01,SSW,194,1.0,2.0,95,0.00,,SKC,0.00,VWS V14.01,2013-02-10 06:00:00,
2013-02-10 00:05:00,21.2,20.0,30.00,SSW,194,1.0,3.0,95,0.00,,SKC,0.00,VWS V14.01,2013-02-10 06:05:00,
2013-02-10 00:10:00,21.3,20.1,30.00,SSW,194,0.0,2.0,95,0.00,,SKC,0.00,VWS V14.01,2013-02-10 06:10:00,
2013-02-10 00:15:00,21.3,20.1,30.00,SSW,194,1.0,2.0,95,0.00,,SKC,0.00,VWS V14.01,2013-02-10 06:15:00,
2013-02-10 00:20:00,21.3,20.1,30.01,SSW,194,1.0,2.0,95,0.00,,SKC,0.00,VWS V14.01,2013-02-10 06:20:00,
2013-02-10 00:25:00,21.5,20.3,29.99,SSW,194,0.0,4.0,95,0.00,,SKC,0.00,VWS V14.01,2013-02-10 06:25:00,
2013-02-10 00:26:00,21.3,20.1,30.01,SSW,194,1.0,2.0,95,0.00,,SKC,0.00,VWS V14.01,2013-02-10 06:26:00,
2013-02-10 00:30:00,21.5,20.3,29.99,SSW,194,0.0,2.0,95,0.00,,SKC,0.00,VWS V14.01,2013-02-10 06:30:00,
2013-02-10 00:31:00,21.3,20.1,30.01,SSW,194,3.0,3.0,95,0.00,,SKC,0.00,VWS V14.01,2013-02-10 06:31:00,
2013-02-10 00:35:00,21.5,20.3,29.99,SSW,194,1.0,2.0,95,0.00,,SKC,0.00,VWS V14.01,2013-02-10 06:35:00,
2013-02-10 00:36:00,21.4,20.2,30.00,SSW,194,0.0,2.0,95,0.00,,SKC,0.00,VWS V14.01,2013-02-10 06:36:00,
2013-02-10 00:40:00,21.5,20.3,29.99,SSW,194,1.0,2.0,95,0.00,,SKC,0.00,VWS V14.01,2013-02-10 06:40:00,
2013-02-10 00:41:00,21.4,20.2,30.00,SSW,194,1.0,1.0,95,0.00,,SKC,0.00,VWS V14.01,2013-02-10 06:41:00,
2013-02-10 00:45:00,21.5,20.3,29.99,SSW,194,0.0,1.0,95,0.00,,SKC,0.00,VWS V14.01,2013-02-10 06:45:00,
2013-02-10 00:46:00,21.4,20.2,30.00,SSW,194,0.0,1.0,95,0.00,,SKC,0.00,VWS V14.01,2013-02-10 06:46:00,
2013-02-10 00:50:00,21.5,20.3,29.99,SSW,194,3.0,4.0,95,0.00,,SKC,0.00,VWS V14.01,2013-02-10 06:50:00,
2013-02-10 00:51:00,21.4,20.2,30.00,SSW,194,1.0,1.0,95,0.00,,SKC,0.00,VWS V14.01,2013-02-10 06:51:00,
2013-02-10 00:55:00,21.5,20.3,29.99,SSW,194,1.0,3.0,95,0.00,,SKC,0.00,VWS V14.01,2013-02-10 06:55:00,
2013-02-10 00:56:00,21.5,20.3,30.00,SSW,194,1.0,3.0,95,0.00,,SKC,0.00,VWS V14.01,2013-02-10 06:56:00,
2013-02-10 01:00:00,21.5,20.3,29.99,SSW,194,4.0,4.0,95,0.00,,SKC,0.00,VWS V14.01,2013-02-10 07:00:00,
2013-02-10 01:01:00,21.5,20.3,30.00,SSW,194,1.0,2.0,95,0.00,,SKC,0.00,VWS V14.01,2013-02-10 07:01:00,
2013-02-10 01:05:00,21.5,20.3,29.99,SSW,194,1.0,5.0,95,0.00,,SKC,0.00,VWS V14.01,2013-02-10 07:05:00,
2013-02-10 01:06:00,21.5,20.3,29.99,SSW,194,1.0,3.0,95,0.00,,SKC,0.00,VWS V14.01,2013-02-10 07:06:00,
2013-02-10 01:10:00,21.5,20.3,29.99,SSW,194,1.0,2.0,95,0.00,,SKC,0.00,VWS V14.01,2013-02-10 07:10:00,
2013-02-10 01:11:00,21.5,20.3,29.99,SSW,194,2.0,4.0,95,0.00,,SKC,0.00,VWS V14.01,2013-02-10 07:11:00,
2013-02-10 01:15:00,21.5,20.3,29.99,SSW,194,2.0,2.0,95,0.00,,SKC,0.00,VWS V14.01,2013-02-10 07:15:00,
2013-02-10 01:16:00,21.5,20.3,29.99,SSW,194,1.0,3.0,95,0.00,,SKC,0.00,VWS V14.01,2013-02-10 07:16:00,
2013-02-10 01:20:00,21.4,20.2,29.99,SSW,194,1.0,3.0,95,0.00,,SKC,0.00,VWS V14.01,2013-02-10 07:20:00,
2013-02-10 01:21:00,21.5,20.3,29.99,SSW,194,1.0,3.0,95,0.00,,SKC,0.00,VWS V14.01,2013-02-10 07:21:00,
2013-02-10 01:25:00,21.5,20.3,29.99,SSW,194,2.0,2.0,95,0.00,,SKC,0.00,VWS V14.01,2013-02-10 07:25:00,
2013-02-10 01:26:00,21.5,20.3,29.99,SSW,194,0.0,4.0,95,0.00,,SKC,0.00,VWS V14.01,2013-02-10 07:26:00,
2013-02-10 01:30:00,21.4,20.2,29.99,SSW,194,1.0,2.0,95,0.00,,SKC,0.00,VWS V14.01,2013-02-10 07:30:00,
2013-02-10 01:31:00,21.5,20.3,29.99,SSW,194,1.0,2.0,95,0.00,,SKC,0.00,VWS V14.01,2013-02-10 07:31:00,
2013-02-10 01:35:00,21.5,20.3,29.99,SSW,194,2.0,3.0,95,0.00,,SKC,0.00,VWS V14.01,2013-02-10 07:35:00,
2013-02-10 01:36:00,21.5,20.3,29.99,SSW,194,2.0,2.0,95,0.00,,SKC,0.00,VWS V14.01,2013-02-10 07:36:00,
2013-02-10 01:40:00,21.5,20.3,29.99,SSW,194,1.0,3.0,95,0.00,,SKC,0.00,VWS V14.01,2013-02-10 07:40:00,
2013-02-10 01:41:00,21.5,20.3,29.99,SSW,194,0.0,2.0,95,0.00,,SKC,0.00,VWS V14.01,2013-02-10 07:41:00,
2013-02-10 01:45:00,21.5,20.3,30.00,SSW,194,2.0,4.0,95,0.00,,SKC,0.00,VWS V14.01,2013-02-10 07:45:00,
2013-02-10 01:46:00,21.5,20.3,29.99,SSW,194,0.0,1.0,95,0.00,,SKC,0.00,VWS V14.01,2013-02-10 07:46:00,
2013-02-10 01:50:00,21.4,20.2,30.00,SSW,194,0.0,2.0,95,0.00,,SKC,0.00,VWS V14.01,2013-02-10 07:50:00,
2013-02-10 01:51:00,21.5,20.3,29.99,SSW,194,1.0,4.0,95,0.00,,SKC,0.00,VWS V14.01,2013-02-10 07:51:00,
2013-02-10 01:55:00,21.4,20.2,30.00,SSW,194,2.0,2.0,95,0.00,,SKC,0.00,VWS V14.01,2013-02-10 07:55:00,
2013-02-10 01:56:00,21.5,20.3,29.99,SSW,194,1.0,3.0,95,0.00,,SKC,0.00,VWS V14.01,2013-02-10 07:56:00,
2013-02-10 02:00:00,21.4,20.2,29.98,SSW,194,3.0,4.0,95,0.00,,SKC,0.00,VWS V14.01,2013-02-10 08:00:00,
2013-02-10 02:01:00,21.5,20.3,29.99,SSW,194,3.0,4.0,95,0.00,,SKC,0.00,VWS V14.01,2013-02-10 08:01:00,
2013-02-10 02:05:00,21.3,20.1,29.98,SSW,194,3.0,3.0,95,0.00,,SKC,0.00,VWS V14.01,2013-02-10 08:05:00,
2013-02-10 02:06:00,21.5,20.3,29.99,SSW,194,1.0,5.0,95,0.00,,SKC,0.00,VWS V14.01,2013-02-10 08:06:00,
2013-02-10 02:10:00,21.3,20.1,29.98,SSW,194,2.0,4.0,95,0.00,,SKC,0.00,VWS V14.01,2013-02-10 08:10:00,
2013-02-10 02:11:00,21.5,20.3,29.99,SSW,194,2.0,2.0,95,0.00,,SKC,0.00,VWS V14.01,2013-02-10 08:11:00,
2013-02-10 02:15:00,21.3,20.1,29.98,SSW,194,2.0,4.0,95,0.00,,SKC,0.00,VWS V14.01,2013-02-10 08:15:00,
2013-02-10 02:16:00,21.5,20.3,29.99,SSW,194,1.0,2.0,95,0.00,,SKC,0.00,VWS V14.01,2013-02-10 08:16:00,
2013-02-10 02:20:00,21.3,20.1,29.98,SSW,194,1.0,2.0,95,0.00,,SKC,0.00,VWS V14.01,2013-02-10 08:20:00,
2013-02-10 02:21:00,21.4,20.2,29.99,SSW,194,2.0,3.0,95,0.00,,SKC,0.00,VWS V14.01,2013-02-10 08:21:00,
2013-02-10 02:25:00,21.3,20.1,29.98,SSW,194,1.0,1.0,95,0.00,,SKC,0.00,VWS V14.01,2013-02-10 08:25:00,
2013-02-10 02:26:00,21.5,20.3,29.99,SSW,194,1.0,2.0,95,0.00,,SKC,0.00,VWS V14.01,2013-02-10 08:26:00,
2013-02-10 02:30:00,21.3,20.1,29.97,SSW,194,1.0,2.0,95,0.00,,SKC,0.00,VWS V14.01,2013-02-10 08:30:00,
2013-02-10 02:31:00,21.4,20.2,29.99,SSW,194,2.0,2.0,95,0.00,,SKC,0.00,VWS V14.01,2013-02-10 08:31:00,
2013-02-10 02:35:00,21.3,20.1,29.97,SSW,194,1.0,3.0,95,0.00,,SKC,0.00,VWS V14.01,2013-02-10 08:35:00,
2013-02-10 02:36:00,21.5,20.3,29.99,SSW,194,1.0,3.0,95,0.00,,SKC,0.00,VWS V14.01,2013-02-10 08:36:00,
2013-02-10 02:40:00,21.3,20.1,29.97,SSW,194,0.0,2.0,95,0.00,,SKC,0.00,VWS V14.01,2013-02-10 08:40:00,
2013-02-10 02:42:00,21.4,20.2,29.99,SSW,194,1.0,3.0,95,0.00,,SKC,0.00,VWS V14.01,2013-02-10 08:42:00,
2013-02-10 02:45:00,21.3,20.1,29.96,SSW,194,0.0,1.0,95,0.00,,SKC,0.00,VWS V14.01,2013-02-10 08:45:00,
2013-02-10 02:47:00,21.5,20.3,30.00,SSW,194,2.0,4.0,95,0.00,,SKC,0.00,VWS V14.01,2013-02-10 08:47:00,
2013-02-10 02:50:00,21.3,20.1,29.96,SSW,194,0.0,2.0,95,0.00,,SKC,0.00,VWS V14.01,2013-02-10 08:50:00,
2013-02-10 02:52:00,21.4,20.2,30.00,SSW,194,1.0,2.0,95,0.00,,SKC,0.00,VWS V14.01,2013-02-10 08:52:00,
2013-02-10 02:55:00,21.3,20.1,29.96,SSW,194,0.0,1.0,95,0.00,,SKC,0.00,VWS V14.01,2013-02-10 08:55:00,
2013-02-10 02:57:00,21.5,20.3,30.00,SSW,194,2.0,2.0,95,0.00,,SKC,0.00,VWS V14.01,2013-02-10 08:57:00,
2013-02-10 03:00:00,21.3,20.1,29.96,SSW,194,0.0,2.0,95,0.00,,SKC,0.00,VWS V14.01,2013-02-10 09:00:00,
2013-02-10 03:02:00,21.4,20.2,29.98,SSW,194,3.0,4.0,95,0.00,,SKC,0.00,VWS V14.01,2013-02-10 09:02:00,
2013-02-10 03:05:00,21.3,20.1,29.96,SSW,194,0.0,1.0,95,0.00,,SKC,0.00,VWS V14.01,2013-02-10 09:05:00,
2013-02-10 03:07:00,21.3,20.1,29.98,SSW,194,2.0,3.0,95,0.00,,SKC,0.00,VWS V14.01,2013-02-10 09:07:00,
2013-02-10 03:10:00,21.3,20.1,29.96,SSW,194,0.0,1.0,95,0.00,,SKC,0.00,VWS V14.01,2013-02-10 09:10:00,
2013-02-10 03:12:00,21.3,20.1,29.98,SSW,194,3.0,4.0,95,0.00,,SKC,0.00,VWS V14.01,2013-02-10 09:12:00,
2013-02-10 03:15:00,21.3,20.1,29.95,SSW,194,0.0,0.0,95,0.00,,SKC,0.00,VWS V14.01,2013-02-10 09:15:00,
2013-02-10 03:17:00,21.3,20.1,29.98,SSW,194,2.0,4.0,95,0.00,,SKC,0.00,VWS V14.01,2013-02-10 09:17:00,
2013-02-10 03:20:00,21.3,20.1,29.95,SSW,194,0.0,0.0,95,0.00,,SKC,0.00,VWS V14.01,2013-02-10 09:20:00,
2013-02-10 03:22:00,21.3,20.1,29.98,SSW,194,1.0,2.0,95,0.00,,SKC,0.00,VWS V14.01,2013-02-10 09:22:00,
2013-02-10 03:25:00,21.3,20.1,29.95,SSW,194,0.0,0.0,95,0.00,,SKC,0.00,VWS V14.01,2013-02-10 09:25:00,
2013-02-10 03:27:00,21.3,20.1,29.98,SSW,194,1.0,1.0,95,0.00,,SKC,0.00,VWS V14.01,2013-02-10 09:27:00,
2013-02-10 03:30:00,21.3,19.8,29.94,SSW,194,0.0,0.0,94,0.00,,SKC,0.00,VWS V14.01,2013-02-10 09:30:00,
2013-02-10 03:32:00,21.3,20.1,29.97,SSW,194,1.0,2.0,95,0.00,,SKC,0.00,VWS V14.01,2013-02-10 09:32:00,
2013-02-10 03:35:00,21.3,19.8,29.94,SSW,194,0.0,0.0,94,0.00,,SKC,0.00,VWS V14.01,2013-02-10 09:35:00,
2013-02-10 03:37:00,21.3,20.1,29.97,SSW,194,1.0,3.0,95,0.00,,SKC,0.00,VWS V14.01,2013-02-10 09:37:00,
2013-02-10 03:40:00,21.3,19.8,29.94,SSW,194,0.0,0.0,94,0.00,,SKC,0.00,VWS V14.01,2013-02-10 09:40:00,
2013-02-10 03:42:00,21.3,20.1,29.97,SSW,194,0.0,0.0,95,0.00,,SKC,0.00,VWS V14.01,2013-02-10 09:42:00,
2013-02-10 03:45:00,21.3,19.8,29.92,SSW,194,0.0,0.0,94,0.00,,SKC,0.00,VWS V14.01,2013-02-10 09:45:00,
2013-02-10 03:47:00,21.3,20.1,29.96,SSW,194,0.0,0.0,95,0.00,,SKC,0.00,VWS V14.01,2013-02-10 09:47:00,
2013-02-10 03:50:00,21.3,19.8,29.92,SSW,194,0.0,0.0,94,0.00,,SKC,0.00,VWS V14.01,2013-02-10 09:50:00,
2013-02-10 03:52:00,21.3,20.1,29.96,SSW,194,0.0,0.0,95,0.00,,SKC,0.00,VWS V14.01,2013-02-10 09:52:00,
2013-02-10 03:55:00,21.3,20.1,29.92,SSW,194,0.0,0.0,95,0.00,,SKC,0.00,VWS V14.01,2013-02-10 09:55:00,
2013-02-10 03:57:00,21.3,20.1,29.96,SSW,194,0.0,0.0,95,0.00,,SKC,0.00,VWS V14.01,2013-02-10 09:57:00,
2013-02-10 04:00:00,21.3,20.1,29.92,SSW,194,0.0,0.0,95,0.00,,SKC,0.00,VWS V14.01,2013-02-10 10:00:00,
2013-02-10 04:02:00,21.3,20.1,29.96,SSW,194,0.0,1.0,95,0.00,,SKC,0.00,VWS V14.01,2013-02-10 10:02:00,
2013-02-10 04:05:00,21.3,20.1,29.92,SSW,194,0.0,0.0,95,0.00,,SKC,0.00,VWS V14.01,2013-02-10 10:05:00,
2013-02-10 04:07:00,21.3,20.1,29.96,SSW,194,0.0,0.0,95,0.00,,SKC,0.00,VWS V14.01,2013-02-10 10:07:00,
2013-02-10 04:10:00,21.3,20.1,29.92,SSW,194,0.0,0.0,95,0.00,,SKC,0.00,VWS V14.01,2013-02-10 10:10:00,
2013-02-10 04:12:00,21.3,20.1,29.96,SSW,194,0.0,0.0,95,0.00,,SKC,0.00,VWS V14.01,2013-02-10 10:12:00,
2013-02-10 04:15:00,21.3,20.1,29.92,SSW,194,0.0,0.0,95,0.00,,SKC,0.00,VWS V14.01,2013-02-10 10:15:00,
2013-02-10 04:17:00,21.3,20.1,29.95,SSW,194,0.0,0.0,95,0.00,,SKC,0.00,VWS V14.01,2013-02-10 10:17:00,
2013-02-10 04:20:00,21.3,20.1,29.92,SSW,194,0.0,0.0,95,0.00,,SKC,0.00,VWS V14.01,2013-02-10 10:20:00,
2013-02-10 04:22:00,21.3,20.1,29.95,SSW,194,0.0,0.0,95,0.00,,SKC,0.00,VWS V14.01,2013-02-10 10:22:00,
2013-02-10 04:25:00,21.3,20.1,29.92,SSW,194,0.0,0.0,95,0.00,,SKC,0.00,VWS V14.01,2013-02-10 10:25:00,
2013-02-10 04:27:00,21.3,20.1,29.95,SSW,194,0.0,0.0,95,0.00,,SKC,0.00,VWS V14.01,2013-02-10 10:27:00,
2013-02-10 04:30:00,21.3,20.1,29.91,SSW,194,0.0,0.0,95,0.00,,SKC,0.00,VWS V14.01,2013-02-10 10:30:00,
2013-02-10 04:32:00,21.3,19.9,29.94,SSW,194,0.0,0.0,94,0.00,,SKC,0.00,VWS V14.01,2013-02-10 10:32:00,
2013-02-10 04:35:00,21.2,20.0,29.91,SSW,194,0.0,0.0,95,0.00,,SKC,0.00,VWS V14.01,2013-02-10 10:35:00,
2013-02-10 04:38:00,21.3,19.9,29.94,SSW,194,0.0,0.0,94,0.00,,SKC,0.00,VWS V14.01,2013-02-10 10:38:00,
2013-02-10 04:40:00,21.2,20.0,29.91,SSW,194,0.0,0.0,95,0.00,,SKC,0.00,VWS V14.01,2013-02-10 10:40:00,
2013-02-10 04:43:00,21.3,20.1,29.94,SSW,194,0.0,0.0,95,0.00,,SKC,0.00,VWS V14.01,2013-02-10 10:43:00,
2013-02-10 04:45:00,21.2,20.0,29.90,SSW,194,0.0,0.0,95,0.00,,SKC,0.00,VWS V14.01,2013-02-10 10:45:00,
2013-02-10 04:48:00,21.3,19.9,29.92,SSW,194,0.0,0.0,94,0.00,,SKC,0.00,VWS V14.01,2013-02-10 10:48:00,
2013-02-10 04:50:00,21.2,20.0,29.90,SSW,194,0.0,0.0,95,0.00,,SKC,0.00,VWS V14.01,2013-02-10 10:50:00,
2013-02-10 04:53:00,21.3,19.9,29.92,SSW,194,0.0,0.0,94,0.00,,SKC,0.00,VWS V14.01,2013-02-10 10:53:00,
2013-02-10 04:55:00,21.3,20.1,29.90,SSW,194,0.0,0.0,95,0.00,,SKC,0.00,VWS V14.01,2013-02-10 10:55:00,
2013-02-10 04:58:00,21.3,20.1,29.92,SSW,194,0.0,0.0,95,0.00,,SKC,0.00,VWS V14.01,2013-02-10 10:58:00,
2013-02-10 05:00:00,21.3,20.1,29.91,SSW,194,0.0,0.0,95,0.00,,SKC,0.00,VWS V14.01,2013-02-10 11:00:00,
2013-02-10 05:03:00,21.3,20.1,29.92,SSW,194,0.0,0.0,95,0.00,,SKC,0.00,VWS V14.01,2013-02-10 11:03:00,
2013-02-10 05:05:00,21.3,20.1,29.91,SSW,194,0.0,0.0,95,0.00,,SKC,0.00,VWS V14.01,2013-02-10 11:05:00,
2013-02-10 05:08:00,21.3,20.1,29.92,SSW,194,0.0,0.0,95,0.00,,SKC,0.00,VWS V14.01,2013-02-10 11:08:00,
2013-02-10 05:10:00,21.4,20.2,29.91,SSW,194,0.0,0.0,95,0.00,,SKC,0.00,VWS V14.01,2013-02-10 11:10:00,
2013-02-10 05:13:00,21.3,20.1,29.92,SSW,194,0.0,0.0,95,0.00,,SKC,0.00,VWS V14.01,2013-02-10 11:13:00,
2013-02-10 05:15:00,21.4,20.2,29.90,SSW,194,0.0,0.0,95,0.00,,SKC,0.00,VWS V14.01,2013-02-10 11:15:00,
2013-02-10 05:18:00,21.3,20.1,29.92,SSW,194,0.0,0.0,95,0.00,,SKC,0.00,VWS V14.01,2013-02-10 11:18:00,
2013-02-10 05:20:00,21.4,20.2,29.90,SSW,194,0.0,0.0,95,0.00,,SKC,0.00,VWS V14.01,2013-02-10 11:20:00,
2013-02-10 05:23:00,21.3,20.1,29.92,SSW,194,0.0,0.0,95,0.00,,SKC,0.00,VWS V14.01,2013-02-10 11:23:00,
2013-02-10 05:25:00,21.4,20.2,29.90,SSW,194,0.0,0.0,95,0.00,,SKC,0.00,VWS V14.01,2013-02-10 11:25:00,
2013-02-10 05:28:00,21.3,20.1,29.92,SSW,194,0.0,0.0,95,0.00,,SKC,0.00,VWS V14.01,2013-02-10 11:28:00,
2013-02-10 05:30:00,21.5,20.3,29.89,SSW,194,0.0,0.0,95,0.00,,SKC,0.00,VWS V14.01,2013-02-10 11:30:00,
2013-02-10 05:33:00,21.3,20.1,29.91,SSW,194,0.0,0.0,95,0.00,,SKC,0.00,VWS V14.01,2013-02-10 11:33:00,
2013-02-10 05:35:00,21.5,20.3,29.89,SSW,194,0.0,0.0,95,0.00,,SKC,0.00,VWS V14.01,2013-02-10 11:35:00,
2013-02-10 05:38:00,21.2,20.0,29.91,SSW,194,0.0,0.0,95,0.00,,SKC,0.00,VWS V14.01,2013-02-10 11:38:00,
2013-02-10 05:40:00,21.6,20.4,29.89,SSW,194,0.0,0.0,95,0.00,,SKC,0.00,VWS V14.01,2013-02-10 11:40:00,
2013-02-10 05:43:00,21.3,20.1,29.91,SSW,194,0.0,0.0,95,0.00,,SKC,0.00,VWS V14.01,2013-02-10 11:43:00,
2013-02-10 05:45:00,21.6,20.4,29.88,SSW,194,0.0,0.0,95,0.00,,SKC,0.00,VWS V14.01,2013-02-10 11:45:00,
2013-02-10 05:48:00,21.2,20.0,29.90,SSW,194,0.0,0.0,95,0.00,,SKC,0.00,VWS V14.01,2013-02-10 11:48:00,
2013-02-10 05:50:00,21.6,20.4,29.88,SSW,194,2.0,2.0,95,0.00,,SKC,0.00,VWS V14.01,2013-02-10 11:50:00,
2013-02-10 05:53:00,21.2,20.0,29.90,SSW,194,0.0,0.0,95,0.00,,SKC,0.00,VWS V14.01,2013-02-10 11:53:00,
2013-02-10 05:55:00,21.6,20.4,29.88,SSW,194,1.0,2.0,95,0.00,,SKC,0.00,VWS V14.01,2013-02-10 11:55:00,
2013-02-10 05:58:00,21.3,20.1,29.90,SSW,194,0.0,0.0,95,0.00,,SKC,0.00,VWS V14.01,2013-02-10 11:58:00,
2013-02-10 06:00:00,21.7,20.7,29.87,SSW,194,1.0,3.0,96,0.00,,SKC,0.00,VWS V14.01,2013-02-10 12:00:00,
2013-02-10 06:03:00,21.3,20.1,29.91,SSW,194,0.0,0.0,95,0.00,,SKC,0.00,VWS V14.01,2013-02-10 12:03:00,
2013-02-10 06:05:00,21.9,20.9,29.87,SSW,194,1.0,2.0,96,0.00,,SKC,0.00,VWS V14.01,2013-02-10 12:05:00,
2013-02-10 06:08:00,21.3,20.1,29.91,SSW,194,0.0,0.0,95,0.00,,SKC,0.00,VWS V14.01,2013-02-10 12:08:00,
2013-02-10 06:10:00,21.9,20.9,29.87,SSW,194,2.0,3.0,96,0.00,,SKC,0.00,VWS V14.01,2013-02-10 12:10:00,
2013-02-10 06:13:00,21.4,20.2,29.91,SSW,194,0.0,0.0,95,0.00,,SKC,0.00,VWS V14.01,2013-02-10 12:13:00,
2013-02-10 06:15:00,21.9,20.9,29.86,SSW,194,1.0,2.0,96,0.00,,SKC,0.00,VWS V14.01,2013-02-10 12:15:00,
2013-02-10 06:18:00,21.4,20.2,29.90,SSW,194,0.0,0.0,95,0.00,,SKC,0.00,VWS V14.01,2013-02-10 12:18:00,
2013-02-10 06:20:00,22.1,21.1,29.86,SSW,194,1.0,2.0,96,0.00,,SKC,0.00,VWS V14.01,2013-02-10 12:20:00,
2013-02-10 06:23:00,21.4,20.2,29.90,SSW,194,0.0,0.0,95,0.00,,SKC,0.00,VWS V14.01,2013-02-10 12:23:00,
2013-02-10 06:25:00,22.1,21.1,29.86,SSW,194,1.0,2.0,96,0.00,,SKC,0.00,VWS V14.01,2013-02-10 12:25:00,
2013-02-10 06:28:00,21.4,20.2,29.90,SSW,194,0.0,0.0,95,0.00,,SKC,0.00,VWS V14.01,2013-02-10 12:28:00,
2013-02-10 06:30:00,22.2,21.2,29.85,SSW,194,2.0,3.0,96,0.00,,SKC,0.00,VWS V14.01,2013-02-10 12:30:00,
2013-02-10 06:33:00,21.5,20.3,29.89,SSW,194,0.0,0.0,95,0.00,,SKC,0.00,VWS V14.01,2013-02-10 12:33:00,
2013-02-10 06:35:00,22.3,21.3,29.85,SSW,194,1.0,3.0,96,0.00,,SKC,0.00,VWS V14.01,2013-02-10 12:35:00,
2013-02-10 06:38:00,21.5,20.3,29.89,SSW,194,0.0,0.0,95,0.00,,SKC,0.00,VWS V14.01,2013-02-10 12:38:00,
2013-02-10 06:40:00,22.4,21.4,29.85,SSW,194,2.0,3.0,96,0.00,,SKC,0.00,VWS V14.01,2013-02-10 12:40:00,
2013-02-10 06:43:00,21.6,20.4,29.89,SSW,194,0.0,0.0,95,0.00,,SKC,0.00,VWS V14.01,2013-02-10 12:43:00,
2013-02-10 06:45:00,22.5,21.5,29.83,SSW,194,1.0,5.0,96,0.00,,SKC,0.00,VWS V14.01,2013-02-10 12:45:00,
2013-02-10 06:48:00,21.6,20.4,29.88,SSW,194,0.0,0.0,95,0.00,,SKC,0.00,VWS V14.01,2013-02-10 12:48:00,
2013-02-10 06:50:00,22.6,21.6,29.83,SSW,194,2.0,3.0,96,0.00,,SKC,0.00,VWS V14.01,2013-02-10 12:50:00,
2013-02-10 06:53:00,21.6,20.4,29.88,SSW,194,1.0,2.0,95,0.00,,SKC,0.00,VWS V14.01,2013-02-10 12:53:00,
2013-02-10 06:55:00,22.7,21.7,29.83,SSW,194,1.0,3.0,96,0.00,,SKC,0.00,VWS V14.01,2013-02-10 12:55:00,
2013-02-10 06:58:00,21.6,20.4,29.88,SSW,194,1.0,2.0,95,0.00,,SKC,0.00,VWS V14.01,2013-02-10 12:58:00,
2013-02-10 07:00:00,22.8,21.8,29.82,SSW,194,2.0,3.0,96,0.00,,SKC,0.00,VWS V14.01,2013-02-10 13:00:00,
2013-02-10 07:03:00,21.8,20.8,29.87,SSW,194,1.0,1.0,96,0.00,,SKC,0.00,VWS V14.01,2013-02-10 13:03:00,
2013-02-10 07:05:00,22.9,21.9,29.82,SSW,194,2.0,3.0,96,0.00,,SKC,0.00,VWS V14.01,2013-02-10 13:05:00,
2013-02-10 07:09:00,21.9,20.9,29.87,SSW,194,2.0,3.0,96,0.00,,SKC,0.00,VWS V14.01,2013-02-10 13:09:00,
2013-02-10 07:10:00,23.1,22.1,29.82,SSW,194,2.0,4.0,96,0.00,,SKC,0.00,VWS V14.01,2013-02-10 13:10:00,
2013-02-10 07:14:00,21.9,20.9,29.87,SSW,194,1.0,2.0,96,0.00,,SKC,0.00,VWS V14.01,2013-02-10 13:14:00,
2013-02-10 07:15:00,23.2,22.2,29.80,SSW,194,2.0,4.0,96,0.00,,SKC,0.00,VWS V14.01,2013-02-10 13:15:00,
2013-02-10 07:19:00,22.0,21.0,29.86,SSW,194,1.0,2.0,96,0.00,,SKC,0.00,VWS V14.01,2013-02-10 13:19:00,
2013-02-10 07:20:00,23.4,22.4,29.80,SSW,194,3.0,4.0,96,0.00,,SKC,0.00,VWS V14.01,2013-02-10 13:20:00,
2013-02-10 07:24:00,22.1,21.1,29.86,SSW,194,1.0,1.0,96,0.00,,SKC,0.00,VWS V14.01,2013-02-10 13:24:00,
2013-02-10 07:25:00,23.5,22.5,29.80,SSW,194,1.0,3.0,96,0.00,,SKC,0.00,VWS V14.01,2013-02-10 13:25:00,
2013-02-10 07:29:00,22.1,21.1,29.86,SSW,194,2.0,2.0,96,0.00,,SKC,0.00,VWS V14.01,2013-02-10 13:29:00,
2013-02-10 07:30:00,23.6,22.6,29.80,SSW,194,1.0,2.0,96,0.00,,SKC,0.00,VWS V14.01,2013-02-10 13:30:00,
2013-02-10 07:34:00,22.2,21.2,29.85,SSW,194,2.0,2.0,96,0.00,,SKC,0.00,VWS V14.01,2013-02-10 13:34:00,
2013-02-10 07:35:00,23.8,22.8,29.80,SSW,194,2.0,3.0,96,0.00,,SKC,0.00,VWS V14.01,2013-02-10 13:35:00,
2013-02-10 07:39:00,22.3,21.3,29.85,SSW,194,2.0,3.0,96,0.00,,SKC,0.00,VWS V14.01,2013-02-10 13:39:00,
2013-02-10 07:40:00,23.8,22.8,29.80,SSW,194,2.0,5.0,96,0.00,,SKC,0.00,VWS V14.01,2013-02-10 13:40:00,
2013-02-10 07:44:00,22.5,21.5,29.85,SSW,194,3.0,5.0,96,0.00,,SKC,0.00,VWS V14.01,2013-02-10 13:44:00,
2013-02-10 07:45:00,23.9,22.9,29.79,SSW,194,2.0,3.0,96,0.00,,SKC,0.00,VWS V14.01,2013-02-10 13:45:00,
2013-02-10 07:49:00,22.6,21.6,29.83,SSW,194,2.0,3.0,96,0.00,,SKC,0.00,VWS V14.01,2013-02-10 13:49:00,
2013-02-10 07:50:00,24.0,23.0,29.79,SSW,194,2.0,6.0,96,0.00,,SKC,0.00,VWS V14.01,2013-02-10 13:50:00,
2013-02-10 07:54:00,22.7,21.7,29.83,SSW,194,1.0,2.0,96,0.00,,SKC,0.00,VWS V14.01,2013-02-10 13:54:00,
2013-02-10 07:55:00,24.1,23.1,29.79,SSW,194,3.0,3.0,96,0.00,,SKC,0.00,VWS V14.01,2013-02-10 13:55:00,
2013-02-10 07:59:00,22.8,21.8,29.83,SSW,194,2.0,3.0,96,0.00,,SKC,0.00,VWS V14.01,2013-02-10 13:59:00,
2013-02-10 08:00:00,24.2,23.2,29.78,SSW,194,1.0,4.0,96,0.00,,SKC,0.00,VWS V14.01,2013-02-10 14:00:00,
2013-02-10 08:04:00,22.9,21.9,29.82,SSW,194,1.0,2.0,96,0.00,,SKC,0.00,VWS V14.01,2013-02-10 14:04:00,
2013-02-10 08:05:00,24.3,23.3,29.78,SSW,194,1.0,2.0,96,0.00,,SKC,0.00,VWS V14.01,2013-02-10 14:05:00,
2013-02-10 08:09:00,23.0,22.0,29.82,SSW,194,2.0,2.0,96,0.00,,SKC,0.00,VWS V14.01,2013-02-10 14:09:00,
2013-02-10 08:10:00,24.4,23.4,29.78,SSW,194,1.0,2.0,96,0.00,,SKC,0.00,VWS V14.01,2013-02-10 14:10:00,
2013-02-10 08:14:00,23.1,22.1,29.82,SSW,194,2.0,4.0,96,0.00,,SKC,0.00,VWS V14.01,2013-02-10 14:14:00,
2013-02-10 08:15:00,24.6,23.6,29.78,SSW,194,2.0,2.0,96,0.00,,SKC,0.00,VWS V14.01,2013-02-10 14:15:00,
2013-02-10 08:19:00,23.3,22.3,29.80,SSW,194,2.0,3.0,96,0.00,,SKC,0.00,VWS V14.01,2013-02-10 14:19:00,
2013-02-10 08:20:00,24.8,23.8,29.78,SSW,194,2.0,2.0,96,0.00,,SKC,0.00,VWS V14.01,2013-02-10 14:20:00,
2013-02-10 08:24:00,23.4,22.4,29.80,SSW,194,1.0,3.0,96,0.00,,SKC,0.00,VWS V14.01,2013-02-10 14:24:00,
2013-02-10 08:25:00,25.0,24.0,29.78,SSW,194,1.0,2.0,96,0.00,,SKC,0.00,VWS V14.01,2013-02-10 14:25:00,
2013-02-10 08:29:00,23.5,22.5,29.80,SSW,194,1.0,2.0,96,0.00,,SKC,0.00,VWS V14.01,2013-02-10 14:29:00,
2013-02-10 08:30:00,25.1,24.1,29.79,SSW,194,1.0,2.0,96,0.00,,SKC,0.00,VWS V14.01,2013-02-10 14:30:00,
2013-02-10 08:34:00,23.6,22.6,29.80,SSW,194,2.0,2.0,96,0.00,,SKC,0.00,VWS V14.01,2013-02-10 14:34:00,
2013-02-10 08:35:00,25.3,24.3,29.79,SSW,194,2.0,4.0,96,0.00,,SKC,0.00,VWS V14.01,2013-02-10 14:35:00,
2013-02-10 08:39:00,23.8,22.8,29.80,SSW,194,3.0,3.0,96,0.00,,SKC,0.00,VWS V14.01,2013-02-10 14:39:00,
2013-02-10 08:40:00,25.4,24.4,29.79,SSW,194,2.0,2.0,96,0.00,,SKC,0.00,VWS V14.01,2013-02-10 14:40:00,
2013-02-10 08:44:00,23.9,22.9,29.80,SSW,194,3.0,3.0,96,0.00,,SKC,0.00,VWS V14.01,2013-02-10 14:44:00,
2013-02-10 08:45:00,25.5,24.5,29.78,SSW,194,3.0,4.0,96,0.00,,SKC,0.00,VWS V14.01,2013-02-10 14:45:00,
2013-02-10 08:49:00,24.0,23.0,29.79,SSW,194,2.0,3.0,96,0.00,,SKC,0.00,VWS V14.01,2013-02-10 14:49:00,
2013-02-10 08:50:00,25.6,24.6,29.78,SSW,194,1.0,5.0,96,0.00,,SKC,0.00,VWS V14.01,2013-02-10 14:50:00,
2013-02-10 08:54:00,24.1,23.1,29.79,SSW,194,3.0,3.0,96,0.00,,SKC,0.00,VWS V14.01,2013-02-10 14:54:00,
2013-02-10 08:55:00,25.7,24.7,29.78,SSW,194,4.0,5.0,96,0.00,,SKC,0.00,VWS V14.01,2013-02-10 14:55:00,
2013-02-10 08:59:00,24.2,23.2,29.79,SSW,194,2.0,4.0,96,0.00,,SKC,0.00,VWS V14.01,2013-02-10 14:59:00,
2013-02-10 09:00:00,25.8,24.8,29.80,SSW,194,3.0,4.0,96,0.00,,SKC,0.00,VWS V14.01,2013-02-10 15:00:00,
2013-02-10 09:04:00,24.3,23.3,29.78,SSW,194,2.0,2.0,96,0.00,,SKC,0.00,VWS V14.01,2013-02-10 15:04:00,
2013-02-10 09:05:00,25.8,24.8,29.80,SSW,194,2.0,4.0,96,0.00,,SKC,0.00,VWS V14.01,2013-02-10 15:05:00,
2013-02-10 09:09:00,24.4,23.4,29.78,SSW,194,2.0,2.0,96,0.00,,SKC,0.00,VWS V14.01,2013-02-10 15:09:00,
2013-02-10 09:10:00,25.9,24.9,29.80,SSW,194,4.0,5.0,96,0.00,,SKC,0.00,VWS V14.01,2013-02-10 15:10:00,
2013-02-10 09:14:00,24.5,23.5,29.78,SSW,194,2.0,2.0,96,0.00,,SKC,0.00,VWS V14.01,2013-02-10 15:14:00,
2013-02-10 09:15:00,25.9,24.7,29.80,SSW,194,4.0,4.0,95,0.00,,SKC,0.00,VWS V14.01,2013-02-10 15:15:00,
2013-02-10 09:19:00,24.7,23.7,29.78,SSW,194,1.0,2.0,96,0.00,,SKC,0.00,VWS V14.01,2013-02-10 15:19:00,
2013-02-10 09:20:00,26.0,24.8,29.80,SSW,194,3.0,5.0,95,0.00,,SKC,0.00,VWS V14.01,2013-02-10 15:20:00,
2013-02-10 09:24:00,24.8,23.8,29.78,SSW,194,0.0,2.0,96,0.00,,SKC,0.00,VWS V14.01,2013-02-10 15:24:00,
2013-02-10 09:25:00,26.1,24.9,29.80,SSW,194,2.0,5.0,95,0.00,,SKC,0.00,VWS V14.01,2013-02-10 15:25:00,
2013-02-10 09:29:00,25.0,24.0,29.78,SSW,194,1.0,2.0,96,0.00,,SKC,0.00,VWS V14.01,2013-02-10 15:29:00,
2013-02-10 09:30:00,26.2,25.0,29.79,SSW,194,3.0,5.0,95,0.00,,SKC,0.00,VWS V14.01,2013-02-10 15:30:00,
2013-02-10 09:34:00,25.1,24.1,29.79,SSW,194,4.0,4.0,96,0.00,,SKC,0.00,VWS V14.01,2013-02-10 15:34:00,
2013-02-10 09:35:00,26.2,25.0,29.79,SSW,194,2.0,4.0,95,0.00,,SKC,0.00,VWS V14.01,2013-02-10 15:35:00,
2013-02-10 09:39:00,25.3,24.3,29.79,SSW,194,1.0,2.0,96,0.00,,SKC,0.00,VWS V14.01,2013-02-10 15:39:00,
2013-02-10 09:40:00,26.3,25.1,29.79,SSW,194,2.0,4.0,95,0.00,,SKC,0.00,VWS V14.01,2013-02-10 15:40:00,
2013-02-10 09:44:00,25.4,24.4,29.79,SSW,194,1.0,2.0,96,0.00,,SKC,0.00,VWS V14.01,2013-02-10 15:44:00,
2013-02-10 09:45:00,26.4,25.2,29.78,SSW,194,3.0,5.0,95,0.00,,SKC,0.00,VWS V14.01,2013-02-10 15:45:00,
2013-02-10 09:49:00,25.5,24.5,29.78,SSW,194,4.0,4.0,96,0.00,,SKC,0.00,VWS V14.01,2013-02-10 15:49:00,
2013-02-10 09:50:00,26.5,25.3,29.78,SSW,194,3.0,5.0,95,0.00,,SKC,0.00,VWS V14.01,2013-02-10 15:50:00,
2013-02-10 09:54:00,25.6,24.6,29.78,SSW,194,4.0,4.0,96,0.00,,SKC,0.00,VWS V14.01,2013-02-10 15:54:00,
2013-02-10 09:55:00,26.6,25.4,29.78,SSW,194,2.0,5.0,95,0.00,,SKC,0.00,VWS V14.01,2013-02-10 15:55:00,
2013-02-10 09:59:00,25.7,24.7,29.78,SSW,194,2.0,4.0,96,0.00,,SKC,0.00,VWS V14.01,2013-02-10 15:59:00,
2013-02-10 10:00:00,26.7,25.5,29.76,SSW,194,4.0,5.0,95,0.00,,SKC,0.00,VWS V14.01,2013-02-10 16:00:00,
2013-02-10 10:04:00,25.8,24.8,29.80,SSW,194,2.0,4.0,96,0.00,,SKC,0.00,VWS V14.01,2013-02-10 16:04:00,
2013-02-10 10:05:00,26.7,25.5,29.76,SSW,194,4.0,5.0,95,0.00,,SKC,0.00,VWS V14.01,2013-02-10 16:05:00,
2013-02-10 10:09:00,25.8,24.8,29.80,SSW,194,2.0,4.0,96,0.00,,SKC,0.00,VWS V14.01,2013-02-10 16:09:00,
2013-02-10 10:10:00,26.9,25.7,29.76,SSW,194,3.0,5.0,95,0.00,,SKC,0.00,VWS V14.01,2013-02-10 16:10:00,
2013-02-10 10:14:00,25.9,24.7,29.80,SSW,194,2.0,4.0,95,0.00,,SKC,0.00,VWS V14.01,2013-02-10 16:14:00,
2013-02-10 10:15:00,26.9,25.7,29.75,SSW,194,2.0,5.0,95,0.00,,SKC,0.00,VWS V14.01,2013-02-10 16:15:00,
2013-02-10 10:19:00,25.9,24.7,29.80,SSW,194,2.0,5.0,95,0.00,,SKC,0.00,VWS V14.01,2013-02-10 16:19:00,
2013-02-10 10:20:00,27.0,25.8,29.75,SSW,194,3.0,4.0,95,0.00,,SKC,0.00,VWS V14.01,2013-02-10 16:20:00,
2013-02-10 10:24:00,26.0,24.8,29.80,SSW,194,4.0,5.0,95,0.00,,SKC,0.00,VWS V14.01,2013-02-10 16:24:00,
2013-02-10 10:25:00,27.2,26.0,29.75,SSW,194,4.0,4.0,95,0.00,,SKC,0.00,VWS V14.01,2013-02-10 16:25:00,
2013-02-10 10:29:00,26.1,24.9,29.80,SSW,194,3.0,4.0,95,0.00,,SKC,0.00,VWS V14.01,2013-02-10 16:29:00,
2013-02-10 10:30:00,27.4,26.2,29.72,SSW,194,1.0,5.0,95,0.00,,SKC,0.00,VWS V14.01,2013-02-10 16:30:00,
2013-02-10 10:34:00,26.2,25.0,29.79,SSW,194,3.0,3.0,95,0.00,,SKC,0.00,VWS V14.01,2013-02-10 16:34:00,
2013-02-10 10:35:00,27.5,26.5,29.72,SSW,194,5.0,5.0,96,0.00,,SKC,0.00,VWS V14.01,2013-02-10 16:35:00,
2013-02-10 10:39:00,26.3,25.1,29.79,SSW,194,3.0,4.0,95,0.00,,SKC,0.00,VWS V14.01,2013-02-10 16:39:00,
2013-02-10 10:40:00,27.6,26.6,29.72,SSW,194,2.0,7.0,96,0.00,,SKC,0.00,VWS V14.01,2013-02-10 16:40:00,
2013-02-10 10:44:00,26.3,25.1,29.79,SSW,194,3.0,5.0,95,0.00,,SKC,0.00,VWS V14.01,2013-02-10 16:44:00,
2013-02-10 10:45:00,27.7,26.7,29.70,SSW,194,1.0,4.0,96,0.00,,SKC,0.00,VWS V14.01,2013-02-10 16:45:00,
2013-02-10 10:49:00,26.5,25.3,29.78,SSW,194,4.0,5.0,95,0.00,,SKC,0.00,VWS V14.01,2013-02-10 16:49:00,
2013-02-10 10:50:00,27.8,26.8,29.70,SSW,194,2.0,4.0,96,0.00,,SKC,0.00,VWS V14.01,2013-02-10 16:50:00,
2013-02-10 10:54:00,26.5,25.3,29.78,SSW,194,3.0,5.0,95,0.00,,SKC,0.00,VWS V14.01,2013-02-10 16:54:00,
2013-02-10 10:55:00,27.9,26.9,29.70,SSW,194,2.0,5.0,96,0.00,,SKC,0.00,VWS V14.01,2013-02-10 16:55:00,
2013-02-10 10:59:00,26.6,25.4,29.78,SSW,194,2.0,5.0,95,0.00,,SKC,0.00,VWS V14.01,2013-02-10 16:59:00,
2013-02-10 11:00:00,28.0,27.0,29.67,SSW,194,3.0,5.0,96,0.00,,SKC,0.00,VWS V14.01,2013-02-10 17:00:00,
2013-02-10 11:04:00,26.7,25.5,29.76,SSW,194,2.0,5.0,95,0.00,,SKC,0.00,VWS V14.01,2013-02-10 17:04:00,
2013-02-10 11:05:00,28.1,27.1,29.67,SSW,194,3.0,6.0,96,0.00,,SKC,0.00,VWS V14.01,2013-02-10 17:05:00,
2013-02-10 11:09:00,26.8,25.6,29.76,SSW,194,4.0,5.0,95,0.00,,SKC,0.00,VWS V14.01,2013-02-10 17:09:00,
2013-02-10 11:10:00,28.2,27.2,29.67,SSW,194,3.0,5.0,96,0.00,,SKC,0.00,VWS V14.01,2013-02-10 17:10:00,
2013-02-10 11:14:00,26.9,25.7,29.76,SSW,194,2.0,5.0,95,0.00,,SKC,0.00,VWS V14.01,2013-02-10 17:14:00,
2013-02-10 11:15:00,28.2,27.2,29.66,SSW,194,3.0,5.0,96,0.00,,SKC,0.00,VWS V14.01,2013-02-10 17:15:00,
2013-02-10 11:19:00,27.0,25.8,29.75,SSW,194,3.0,3.0,95,0.00,,SKC,0.00,VWS V14.01,2013-02-10 17:19:00,
2013-02-10 11:20:00,28.3,27.3,29.66,SSW,194,3.0,5.0,96,0.00,,SKC,0.00,VWS V14.01,2013-02-10 17:20:00,
2013-02-10 11:24:00,27.1,25.9,29.75,SSW,194,3.0,3.0,95,0.00,,SKC,0.00,VWS V14.01,2013-02-10 17:24:00,
2013-02-10 11:25:00,28.4,27.4,29.66,SSW,194,3.0,6.0,96,0.00,,SKC,0.00,VWS V14.01,2013-02-10 17:25:00,
2013-02-10 11:29:00,27.3,26.1,29.75,SSW,194,4.0,5.0,95,0.00,,SKC,0.00,VWS V14.01,2013-02-10 17:29:00,
2013-02-10 11:30:00,28.6,27.6,29.64,SSW,194,4.0,6.0,96,0.00,,SKC,0.00,VWS V14.01,2013-02-10 17:30:00,
2013-02-10 11:34:00,27.4,26.2,29.72,SSW,194,2.0,4.0,95,0.00,,SKC,0.00,VWS V14.01,2013-02-10 17:34:00,
2013-02-10 11:35:00,28.7,27.7,29.64,SSW,194,4.0,6.0,96,0.00,,SKC,0.00,VWS V14.01,2013-02-10 17:35:00,
2013-02-10 11:40:00,27.5,26.5,29.72,SSW,194,2.0,7.0,96,0.00,,SKC,0.00,VWS V14.01,2013-02-10 17:40:00,
2013-02-10 11:45:00,27.6,26.6,29.72,SSW,194,4.0,4.0,96,0.00,,SKC,0.00,VWS V14.01,2013-02-10 17:45:00,
2013-02-10 11:50:00,27.7,26.7,29.70,SSW,194,3.0,4.0,96,0.00,,SKC,0.00,VWS V14.01,2013-02-10 17:50:00,
2013-02-10 11:55:00,27.8,26.8,29.70,SSW,194,4.0,5.0,96,0.00,,SKC,0.00,VWS V14.01,2013-02-10 17:55:00,
2013-02-10 12:00:00,28.0,27.0,29.70,SSW,194,4.0,4.0,96,0.00,,SKC,0.00,VWS V14.01,2013-02-10 18:00:00,
2013-02-10 12:05:00,28.0,27.0,29.67,SSW,194,3.0,6.0,96,0.00,,SKC,0.00,VWS V14.01,2013-02-10 18:05:00,
2013-02-10 12:10:00,28.1,27.1,29.67,SSW,194,2.0,5.0,96,0.00,,SKC,0.00,VWS V14.01,2013-02-10 18:10:00,
2013-02-10 12:15:00,28.2,27.2,29.67,SSW,194,2.0,5.0,96,0.00,,SKC,0.00,VWS V14.01,2013-02-10 18:15:00,
2013-02-10 12:20:00,28.3,27.3,29.66,SSW,194,4.0,4.0,96,0.00,,SKC,0.00,VWS V14.01,2013-02-10 18:20:00,
2013-02-10 12:25:00,28.4,27.4,29.66,SSW,194,2.0,6.0,96,0.00,,SKC,0.00,VWS V14.01,2013-02-10 18:25:00,
2013-02-10 12:30:00,28.5,27.5,29.66,SSW,194,3.0,5.0,96,0.00,,SKC,0.00,VWS V14.01,2013-02-10 18:30:00,
2013-02-10 12:35:00,28.6,27.6,29.64,SSW,194,3.0,5.0,96,0.00,,SKC,0.00,VWS V14.01,2013-02-10 18:35:00,
2013-02-10 12:40:00,28.7,27.7,29.64,SSW,194,3.0,5.0,96,0.00,,SKC,0.00,VWS V14.01,2013-02-10 18:40:00,
2013-02-10 12:45:00,28.8,27.8,29.64,SSW,194,4.0,5.0,96,0.00,,SKC,0.00,VWS V14.01,2013-02-10 18:45:00,
2013-02-10 12:50:00,28.8,27.8,29.62,SSW,194,5.0,6.0,96,0.00,,SKC,0.00,VWS V14.01,2013-02-10 18:50:00,
2013-02-10 12:55:00,28.9,27.9,29.62,SSW,194,2.0,6.0,96,0.00,,SKC,0.00,VWS V14.01,2013-02-10 18:55:00,
2013-02-10 13:00:00,29.0,28.0,29.62,SSW,194,3.0,5.0,96,0.00,,SKC,0.00,VWS V14.01,2013-02-10 19:00:00,
2013-02-10 13:05:00,29.0,28.0,29.60,SSW,194,3.0,6.0,96,0.00,,SKC,0.00,VWS V14.01,2013-02-10 19:05:00,
2013-02-10 13:10:00,29.2,28.2,29.60,SSW,194,1.0,5.0,96,0.00,,SKC,0.00,VWS V14.01,2013-02-10 19:10:00,
2013-02-10 13:15:00,29.4,28.4,29.60,SSW,194,2.0,4.0,96,0.00,,SKC,0.00,VWS V14.01,2013-02-10 19:15:00,
2013-02-10 13:20:00,29.5,28.5,29.58,SSW,194,4.0,6.0,96,0.00,,SKC,0.00,VWS V14.01,2013-02-10 19:20:00,
2013-02-10 13:25:00,29.6,28.6,29.58,SSW,194,3.0,6.0,96,0.00,,SKC,0.00,VWS V14.01,2013-02-10 19:25:00,
2013-02-10 13:30:00,29.7,28.7,29.58,SSW,194,4.0,4.0,96,0.00,,SKC,0.00,VWS V14.01,2013-02-10 19:30:00,
2013-02-10 13:35:00,29.7,28.7,29.56,SSW,194,4.0,5.0,96,0.00,,SKC,0.00,VWS V14.01,2013-02-10 19:35:00,
2013-02-10 13:40:00,29.7,28.7,29.56,SSW,194,3.0,6.0,96,0.00,,SKC,0.00,VWS V14.01,2013-02-10 19:40:00,
2013-02-10 13:45:00,29.8,28.8,29.56,SSW,194,4.0,6.0,96,0.00,,SKC,0.00,VWS V14.01,2013-02-10 19:45:00,
2013-02-10 13:50:00,29.8,28.8,29.53,SSW,194,4.0,6.0,96,0.00,,SKC,0.00,VWS V14.01,2013-02-10 19:50:00,
2013-02-10 13:55:00,29.9,28.9,29.53,SSW,194,3.0,6.0,96,0.00,,SKC,0.00,VWS V14.01,2013-02-10 19:55:00,
2013-02-10 14:00:00,30.0,29.0,29.53,SSW,194,4.0,5.0,96,0.00,,SKC,0.00,VWS V14.01,2013-02-10 20:00:00,
2013-02-10 14:05:00,30.1,29.1,29.51,SSW,194,2.0,6.0,96,0.00,,SKC,0.00,VWS V14.01,2013-02-10 20:05:00,
2013-02-10 14:10:00,30.2,29.2,29.51,SSW,194,4.0,5.0,96,0.00,,SKC,0.00,VWS V14.01,2013-02-10 20:10:00,
2013-02-10 14:15:00,30.3,29.3,29.51,SSW,194,4.0,5.0,96,0.00,,SKC,0.00,VWS V14.01,2013-02-10 20:15:00,
2013-02-10 14:20:00,30.4,29.4,29.49,SSW,194,4.0,4.0,96,0.00,,SKC,0.00,VWS V14.01,2013-02-10 20:20:00,
2013-02-10 14:25:00,30.5,29.5,29.49,SSW,194,5.0,6.0,96,0.00,,SKC,0.00,VWS V14.01,2013-02-10 20:25:00,
2013-02-10 14:30:00,30.5,29.5,29.49,SSW,194,4.0,5.0,96,0.00,,SKC,0.00,VWS V14.01,2013-02-10 20:30:00,
2013-02-10 14:35:00,30.6,29.6,29.48,SSW,194,6.0,6.0,96,0.00,,SKC,0.00,VWS V14.01,2013-02-10 20:35:00,
2013-02-10 14:40:00,30.9,29.9,29.48,SSW,194,4.0,7.0,96,0.00,,SKC,0.00,VWS V14.01,2013-02-10 20:40:00,
2013-02-10 14:45:00,31.0,30.0,29.48,SSW,194,4.0,6.0,96,0.00,,SKC,0.00,VWS V14.01,2013-02-10 20:45:00,
2013-02-10 14:50:00,31.2,30.2,29.45,SSW,194,3.0,7.0,96,0.00,,SKC,0.00,VWS V14.01,2013-02-10 20:50:00,
2013-02-10 14:55:00,31.3,30.3,29.45,SSW,194,2.0,5.0,96,0.00,,SKC,0.00,VWS V14.01,2013-02-10 20:55:00,
2013-02-10 15:00:00,31.4,30.4,29.45,SSW,194,3.0,5.0,96,0.00,,SKC,0.00,VWS V14.01,2013-02-10 21:00:00,
2013-02-10 15:05:00,31.7,31.0,29.43,SSW,194,3.0,5.0,97,0.00,,SKC,0.00,VWS V14.01,2013-02-10 21:05:00,
2013-02-10 15:06:00,31.4,30.4,29.45,SSW,194,4.0,6.0,96,0.00,,SKC,0.00,VWS V14.01,2013-02-10 21:06:00,
2013-02-10 15:10:00,31.6,30.9,29.43,SSW,194,3.0,4.0,97,0.00,,SKC,0.00,VWS V14.01,2013-02-10 21:10:00,
2013-02-10 15:11:00,31.5,30.5,29.45,SSW,194,3.0,5.0,96,0.00,,SKC,0.00,VWS V14.01,2013-02-10 21:11:00,
2013-02-10 15:15:00,31.6,30.9,29.43,SSW,194,3.0,7.0,97,0.00,,SKC,0.00,VWS V14.01,2013-02-10 21:15:00,
2013-02-10 15:16:00,31.7,30.7,29.45,SSW,194,4.0,6.0,96,0.00,,SKC,0.00,VWS V14.01,2013-02-10 21:16:00,
2013-02-10 15:20:00,31.4,30.6,29.43,SSW,194,6.0,7.0,97,0.00,,SKC,0.00,VWS V14.01,2013-02-10 21:20:00,
2013-02-10 15:21:00,31.7,31.0,29.45,SSW,194,5.0,6.0,97,0.00,,SKC,0.00,VWS V14.01,2013-02-10 21:21:00,
2013-02-10 15:25:00,31.4,30.6,29.43,SSW,194,3.0,6.0,97,0.00,,SKC,0.00,VWS V14.01,2013-02-10 21:25:00,
2013-02-10 15:26:00,31.9,31.1,29.45,SSW,194,5.0,6.0,97,0.00,,SKC,0.00,VWS V14.01,2013-02-10 21:26:00,
2013-02-10 15:30:00,31.4,30.6,29.42,SSW,194,3.0,5.0,97,0.00,,SKC,0.00,VWS V14.01,2013-02-10 21:30:00,
2013-02-10 15:31:00,31.9,30.9,29.45,SSW,194,3.0,5.0,96,0.00,,SKC,0.00,VWS V14.01,2013-02-10 21:31:00,
2013-02-10 15:35:00,31.3,30.5,29.42,SSW,194,3.0,4.0,97,0.00,,SKC,0.00,VWS V14.01,2013-02-10 21:35:00,
2013-02-10 15:36:00,31.9,30.9,29.45,SSW,194,7.0,7.0,96,0.00,,SKC,0.00,VWS V14.01,2013-02-10 21:36:00,
2013-02-10 15:40:00,31.3,30.5,29.42,SSW,194,4.0,5.0,97,0.00,,SKC,0.00,VWS V14.01,2013-02-10 21:40:00,
2013-02-10 15:41:00,31.9,30.9,29.45,SSW,194,5.0,6.0,96,0.00,,SKC,0.00,VWS V14.01,2013-02-10 21:41:00,
2013-02-10 15:45:00,31.2,30.5,29.42,SSW,194,3.0,5.0,97,0.00,,SKC,0.00,VWS V14.01,2013-02-10 21:45:00,
2013-02-10 15:46:00,31.8,30.8,29.45,SSW,194,5.0,7.0,96,0.00,,SKC,0.00,VWS V14.01,2013-02-10 21:46:00,
2013-02-10 15:50:00,31.2,30.5,29.42,SSW,194,4.0,4.0,97,0.00,,SKC,0.00,VWS V14.01,2013-02-10 21:50:00,
2013-02-10 15:51:00,31.8,30.8,29.43,SSW,194,3.0,5.0,96,0.00,,SKC,0.00,VWS V14.01,2013-02-10 21:51:00,
2013-02-10 15:55:00,31.1,30.4,29.42,SSW,194,3.0,5.0,97,0.00,,SKC,0.00,VWS V14.01,2013-02-10 21:55:00,
2013-02-10 15:56:00,31.7,31.0,29.43,SSW,194,3.0,5.0,97,0.00,,SKC,0.00,VWS V14.01,2013-02-10 21:56:00,
2013-02-10 16:00:00,31.1,30.4,29.42,SSW,194,4.0,4.0,97,0.00,,SKC,0.00,VWS V14.01,2013-02-10 22:00:00,
2013-02-10 16:01:00,31.7,31.0,29.43,SSW,194,3.0,4.0,97,0.00,,SKC,0.00,VWS V14.01,2013-02-10 22:01:00,
2013-02-10 16:05:00,31.0,30.2,29.42,SSW,194,4.0,5.0,97,0.00,,SKC,0.00,VWS V14.01,2013-02-10 22:05:00,
2013-02-10 16:06:00,31.7,31.0,29.43,SSW,194,3.0,5.0,97,0.00,,SKC,0.00,VWS V14.01,2013-02-10 22:06:00,
2013-02-10 16:10:00,31.0,30.2,29.42,SSW,194,4.0,4.0,97,0.00,,SKC,0.00,VWS V14.01,2013-02-10 22:10:00,
2013-02-10 16:11:00,31.6,30.9,29.43,SSW,194,3.0,4.0,97,0.00,,SKC,0.00,VWS V14.01,2013-02-10 22:11:00,
2013-02-10 16:15:00,30.9,30.1,29.41,SSW,194,2.0,4.0,97,0.00,,SKC,0.00,VWS V14.01,2013-02-10 22:15:00,
2013-02-10 16:16:00,31.6,30.9,29.43,SSW,194,6.0,7.0,97,0.00,,SKC,0.00,VWS V14.01,2013-02-10 22:16:00,
2013-02-10 16:20:00,30.9,30.1,29.41,SSW,194,3.0,5.0,97,0.00,,SKC,0.00,VWS V14.01,2013-02-10 22:20:00,
2013-02-10 16:21:00,31.5,30.8,29.43,SSW,194,3.0,6.0,97,0.00,,SKC,0.00,VWS V14.01,2013-02-10 22:21:00,
2013-02-10 16:25:00,30.9,30.1,29.41,SSW,194,4.0,5.0,97,0.00,,SKC,0.00,VWS V14.01,2013-02-10 22:25:00,
2013-02-10 16:26:00,31.4,30.6,29.43,SSW,194,4.0,6.0,97,0.00,,SKC,0.00,VWS V14.01,2013-02-10 22:26:00,
2013-02-10 16:30:00,30.9,30.1,29.41,SSW,194,4.0,5.0,97,0.00,,SKC,0.00,VWS V14.01,2013-02-10 22:30:00,
2013-02-10 16:31:00,31.4,30.6,29.43,SSW,194,4.0,5.0,97,0.00,,SKC,0.00,VWS V14.01,2013-02-10 22:31:00,
2013-02-10 16:35:00,30.8,30.0,29.41,SSW,194,2.0,5.0,97,0.00,,SKC,0.00,VWS V14.01,2013-02-10 22:35:00,
2013-02-10 16:36:00,31.3,30.5,29.42,SSW,194,2.0,4.0,97,0.00,,SKC,0.00,VWS V14.01,2013-02-10 22:36:00,
2013-02-10 16:40:00,30.8,30.0,29.41,SSW,194,4.0,5.0,97,0.00,,SKC,0.00,VWS V14.01,2013-02-10 22:40:00,
2013-02-10 16:41:00,31.3,30.5,29.42,SSW,194,4.0,5.0,97,0.00,,SKC,0.00,VWS V14.01,2013-02-10 22:41:00,
2013-02-10 16:45:00,30.8,30.0,29.40,SSW,194,3.0,4.0,97,0.00,,SKC,0.00,VWS V14.01,2013-02-10 22:45:00,
2013-02-10 16:46:00,31.2,30.5,29.42,SSW,194,3.0,5.0,97,0.00,,SKC,0.00,VWS V14.01,2013-02-10 22:46:00,
2013-02-10 16:50:00,30.8,30.0,29.40,SSW,194,3.0,5.0,97,0.00,,SKC,0.00,VWS V14.01,2013-02-10 22:50:00,
2013-02-10 16:51:00,31.2,30.5,29.42,SSW,194,4.0,4.0,97,0.00,,SKC,0.00,VWS V14.01,2013-02-10 22:51:00,
2013-02-10 16:55:00,30.8,30.0,29.40,SSW,194,2.0,3.0,97,0.00,,SKC,0.00,VWS V14.01,2013-02-10 22:55:00,
2013-02-10 16:56:00,31.1,30.4,29.42,SSW,194,5.0,5.0,97,0.00,,SKC,0.00,VWS V14.01,2013-02-10 22:56:00,
2013-02-10 17:00:00,30.8,30.0,29.40,SSW,194,1.0,4.0,97,0.00,,SKC,0.00,VWS V14.01,2013-02-10 23:00:00,
2013-02-10 17:01:00,31.1,30.4,29.42,SSW,194,3.0,4.0,97,0.00,,SKC,0.00,VWS V14.01,2013-02-10 23:01:00,
2013-02-10 17:05:00,30.8,30.0,29.40,SSW,194,4.0,4.0,97,0.00,,SKC,0.00,VWS V14.01,2013-02-10 23:05:00,
2013-02-10 17:06:00,31.1,30.4,29.42,SSW,194,2.0,4.0,97,0.00,,SKC,0.00,VWS V14.01,2013-02-10 23:06:00,
2013-02-10 17:10:00,30.9,30.1,29.40,SSW,194,3.0,4.0,97,0.00,,SKC,0.00,VWS V14.01,2013-02-10 23:10:00,
2013-02-10 17:11:00,31.0,30.2,29.42,SSW,194,4.0,4.0,97,0.00,,SKC,0.00,VWS V14.01,2013-02-10 23:11:00,
2013-02-10 17:15:00,30.9,30.1,29.39,SSW,194,2.0,4.0,97,0.00,,SKC,0.00,VWS V14.01,2013-02-10 23:15:00,
2013-02-10 17:16:00,30.9,30.1,29.42,SSW,194,4.0,4.0,97,0.00,,SKC,0.00,VWS V14.01,2013-02-10 23:16:00,
2013-02-10 17:20:00,30.9,30.1,29.39,SSW,194,3.0,3.0,97,0.00,,SKC,0.00,VWS V14.01,2013-02-10 23:20:00,
2013-02-10 17:21:00,30.9,30.1,29.41,SSW,194,3.0,4.0,97,0.00,,SKC,0.00,VWS V14.01,2013-02-10 23:21:00,
2013-02-10 17:25:00,30.9,30.1,29.39,SSW,194,2.0,3.0,97,0.00,,SKC,0.00,VWS V14.01,2013-02-10 23:25:00,
2013-02-10 17:26:00,30.9,30.1,29.41,SSW,194,3.0,4.0,97,0.00,,SKC,0.00,VWS V14.01,2013-02-10 23:26:00,
2013-02-10 17:30:00,31.0,30.2,29.38,SSW,194,1.0,4.0,97,0.00,,SKC,0.00,VWS V14.01,2013-02-10 23:30:00,
2013-02-10 17:31:00,30.8,30.0,29.41,SSW,194,4.0,5.0,97,0.00,,SKC,0.00,VWS V14.01,2013-02-10 23:31:00,
2013-02-10 17:35:00,31.0,30.2,29.38,SSW,194,2.0,3.0,97,0.00,,SKC,0.00,VWS V14.01,2013-02-10 23:35:00,
2013-02-10 17:36:00,30.8,30.0,29.41,SSW,194,2.0,5.0,97,0.00,,SKC,0.00,VWS V14.01,2013-02-10 23:36:00,
2013-02-10 17:40:00,31.0,30.2,29.38,SSW,194,2.0,3.0,97,0.00,,SKC,0.00,VWS V14.01,2013-02-10 23:40:00,
2013-02-10 17:41:00,30.8,30.0,29.41,SSW,194,2.0,5.0,97,0.00,,SKC,0.00,VWS V14.01,2013-02-10 23:41:00,
2013-02-10 17:45:00,31.0,30.2,29.37,SSW,194,2.0,3.0,97,0.00,,SKC,0.00,VWS V14.01,2013-02-10 23:45:00,
2013-02-10 17:46:00,30.8,30.0,29.41,SSW,194,4.0,4.0,97,0.00,,SKC,0.00,VWS V14.01,2013-02-10 23:46:00,
2013-02-10 17:50:00,31.0,30.2,29.37,SSW,194,2.0,4.0,97,0.00,,SKC,0.00,VWS V14.01,2013-02-10 23:50:00,
2013-02-10 17:51:00,30.8,30.0,29.40,SSW,194,3.0,5.0,97,0.00,,SKC,0.00,VWS V14.01,2013-02-10 23:51:00,
2013-02-10 17:55:00,31.0,30.2,29.37,SSW,194,3.0,4.0,97,0.00,,SKC,0.00,VWS V14.01,2013-02-10 23:55:00,
2013-02-10 17:56:00,30.8,30.0,29.40,SSW,194,2.0,3.0,97,0.00,,SKC,0.00,VWS V14.01,2013-02-10 23:56:00,
2013-02-10 18:00:00,31.0,30.2,29.36,SSW,194,1.0,3.0,97,0.00,,SKC,0.00,VWS V14.01,2013-02-11 00:00:00,
2013-02-10 18:01:00,30.8,30.0,29.40,SSW,194,3.0,4.0,97,0.00,,SKC,0.00,VWS V14.01,2013-02-11 00:01:00,
2013-02-10 18:05:00,31.0,30.2,29.36,SSW,194,2.0,3.0,97,0.00,,SKC,0.00,VWS V14.01,2013-02-11 00:05:00,
2013-02-10 18:06:00,30.8,30.0,29.40,SSW,194,2.0,4.0,97,0.00,,SKC,0.00,VWS V14.01,2013-02-11 00:06:00,
2013-02-10 18:10:00,31.1,30.4,29.36,SSW,194,2.0,4.0,97,0.00,,SKC,0.00,VWS V14.01,2013-02-11 00:10:00,
2013-02-10 18:11:00,30.8,30.0,29.40,SSW,194,2.0,4.0,97,0.00,,SKC,0.00,VWS V14.01,2013-02-11 00:11:00,
2013-02-10 18:15:00,31.2,30.5,29.34,SSW,194,1.0,3.0,97,0.00,,SKC,0.00,VWS V14.01,2013-02-11 00:15:00,
2013-02-10 18:16:00,30.9,30.1,29.39,SSW,194,2.0,4.0,97,0.00,,SKC,0.00,VWS V14.01,2013-02-11 00:16:00,
2013-02-10 18:20:00,31.2,30.5,29.34,SSW,194,1.0,3.0,97,0.00,,SKC,0.00,VWS V14.01,2013-02-11 00:20:00,
2013-02-10 18:21:00,30.9,30.1,29.39,SSW,194,2.0,3.0,97,0.00,,SKC,0.00,VWS V14.01,2013-02-11 00:21:00,
2013-02-10 18:25:00,31.3,30.5,29.34,SSW,194,2.0,4.0,97,0.00,,SKC,0.00,VWS V14.01,2013-02-11 00:25:00,
2013-02-10 18:26:00,30.9,30.1,29.39,SSW,194,3.0,3.0,97,0.00,,SKC,0.00,VWS V14.01,2013-02-11 00:26:00,
2013-02-10 18:30:00,31.3,30.5,29.35,SSW,194,1.0,2.0,97,0.00,,SKC,0.00,VWS V14.01,2013-02-11 00:30:00,
2013-02-10 18:31:00,31.0,30.2,29.38,SSW,194,2.0,4.0,97,0.00,,SKC,0.00,VWS V14.01,2013-02-11 00:31:00,
2013-02-10 18:35:00,31.3,30.5,29.35,SSW,194,2.0,3.0,97,0.00,,SKC,0.00,VWS V14.01,2013-02-11 00:35:00,
2013-02-10 18:36:00,31.0,30.2,29.38,SSW,194,2.0,3.0,97,0.00,,SKC,0.00,VWS V14.01,2013-02-11 00:36:00,
2013-02-10 18:40:00,31.3,30.5,29.35,SSW,194,2.0,3.0,97,0.00,,SKC,0.00,VWS V14.01,2013-02-11 00:40:00,
2013-02-10 18:41:00,31.0,30.2,29.38,SSW,194,2.0,3.0,97,0.00,,SKC,0.00,VWS V14.01,2013-02-11 00:41:00,
2013-02-10 18:45:00,31.4,30.6,29.33,SSW,194,2.0,4.0,97,0.00,,SKC,0.00,VWS V14.01,2013-02-11 00:45:00,
2013-02-10 18:47:00,31.0,30.2,29.37,SSW,194,2.0,3.0,97,0.00,,SKC,0.00,VWS V14.01,2013-02-11 00:47:00,
2013-02-10 18:50:00,31.5,30.8,29.33,SSW,194,3.0,3.0,97,0.00,,SKC,0.00,VWS V14.01,2013-02-11 00:50:00,
2013-02-10 18:52:00,31.0,30.2,29.37,SSW,194,3.0,4.0,97,0.00,,SKC,0.00,VWS V14.01,2013-02-11 00:52:00,
2013-02-10 18:55:00,31.6,30.9,29.33,SSW,194,2.0,4.0,97,0.00,,SKC,0.00,VWS V14.01,2013-02-11 00:55:00,
2013-02-10 18:57:00,31.0,30.2,29.37,SSW,194,2.0,4.0,97,0.00,,SKC,0.00,VWS V14.01,2013-02-11 00:57:00,
2013-02-10 19:00:00,31.6,30.9,29.32,SSW,194,1.0,3.0,97,0.00,,SKC,0.00,VWS V14.01,2013-02-11 01:00:00,
2013-02-10 19:02:00,31.0,30.2,29.36,SSW,194,2.0,3.0,97,0.00,,SKC,0.00,VWS V14.01,2013-02-11 01:02:00,
2013-02-10 19:05:00,31.7,31.0,29.32,SSW,194,3.0,3.0,97,0.00,,SKC,0.00,VWS V14.01,2013-02-11 01:05:00,
2013-02-10 19:07:00,31.0,30.2,29.36,SSW,194,3.0,3.0,97,0.00,,SKC,0.00,VWS V14.01,2013-02-11 01:07:00,
2013-02-10 19:10:00,31.7,31.0,29.32,SSW,194,2.0,5.0,97,0.00,,SKC,0.00,VWS V14.01,2013-02-11 01:10:00,
2013-02-10 19:12:00,31.0,30.2,29.36,SSW,194,2.0,4.0,97,0.00,,SKC,0.00,VWS V14.01,2013-02-11 01:12:00,
2013-02-10 19:15:00,31.8,31.0,29.31,SSW,194,2.0,3.0,97,0.00,,SKC,0.00,VWS V14.01,2013-02-11 01:15:00,
2013-02-10 19:17:00,31.2,30.5,29.34,SSW,194,2.0,3.0,97,0.00,,SKC,0.00,VWS V14.01,2013-02-11 01:17:00,
2013-02-10 19:20:00,31.8,31.0,29.31,SSW,194,2.0,3.0,97,0.00,,SKC,0.00,VWS V14.01,2013-02-11 01:20:00,
2013-02-10 19:22:00,31.2,30.5,29.34,SSW,194,1.0,3.0,97,0.00,,SKC,0.00,VWS V14.01,2013-02-11 01:22:00,
2013-02-10 19:25:00,31.8,31.0,29.31,SSW,194,2.0,3.0,97,0.00,,SKC,0.00,VWS V14.01,2013-02-11 01:25:00,
2013-02-10 19:27:00,31.2,30.5,29.34,SSW,194,2.0,4.0,97,0.00,,SKC,0.00,VWS V14.01,2013-02-11 01:27:00,
2013-02-10 19:30:00,31.9,31.1,29.30,SSW,194,2.0,3.0,97,0.00,,SKC,0.00,VWS V14.01,2013-02-11 01:30:00,
2013-02-10 19:32:00,31.3,30.5,29.35,SSW,194,1.0,2.0,97,0.00,,SKC,0.00,VWS V14.01,2013-02-11 01:32:00,
2013-02-10 19:35:00,32.0,31.2,29.30,SSW,194,2.0,2.0,97,0.00,,SKC,0.00,VWS V14.01,2013-02-11 01:35:00,
2013-02-10 19:37:00,31.3,30.5,29.35,SSW,194,2.0,3.0,97,0.00,,SKC,0.00,VWS V14.01,2013-02-11 01:37:00,
2013-02-10 19:40:00,32.1,31.4,29.30,SSW,194,1.0,3.0,97,0.00,,SKC,0.00,VWS V14.01,2013-02-11 01:40:00,
2013-02-10 19:42:00,31.3,30.5,29.35,SSW,194,2.0,3.0,97,0.00,,SKC,0.00,VWS V14.01,2013-02-11 01:42:00,
2013-02-10 19:45:00,32.1,31.4,29.29,SSW,194,2.0,2.0,97,0.00,,SKC,0.00,VWS V14.01,2013-02-11 01:45:00,
2013-02-10 19:47:00,31.4,30.6,29.33,SSW,194,2.0,4.0,97,0.00,,SKC,0.00,VWS V14.01,2013-02-11 01:47:00,
2013-02-10 19:50:00,32.2,31.5,29.29,SSW,194,1.0,2.0,97,0.00,,SKC,0.00,VWS V14.01,2013-02-11 01:50:00,
2013-02-10 19:52:00,31.5,30.8,29.33,SSW,194,3.0,3.0,97,0.00,,SKC,0.00,VWS V14.01,2013-02-11 01:52:00,
2013-02-10 19:55:00,32.2,31.5,29.29,SSW,194,1.0,2.0,97,0.00,,SKC,0.00,VWS V14.01,2013-02-11 01:55:00,
2013-02-10 19:57:00,31.6,30.9,29.33,SSW,194,2.0,2.0,97,0.00,,SKC,0.00,VWS V14.01,2013-02-11 01:57:00,
2013-02-10 20:00:00,32.2,31.7,29.29,SSW,194,2.0,2.0,98,0.00,,SKC,0.00,VWS V14.01,2013-02-11 02:00:00,
2013-02-10 20:02:00,31.6,30.9,29.32,SSW,194,1.0,1.0,97,0.00,,SKC,0.00,VWS V14.01,2013-02-11 02:02:00,
2013-02-10 20:05:00,32.3,31.8,29.29,SSW,194,1.0,2.0,98,0.00,,SKC,0.00,VWS V14.01,2013-02-11 02:05:00,
2013-02-10 20:07:00,31.7,31.0,29.32,SSW,194,3.0,3.0,97,0.00,,SKC,0.00,VWS V14.01,2013-02-11 02:07:00,
2013-02-10 20:10:00,32.2,31.7,29.29,SSW,194,1.0,3.0,98,0.00,,SKC,0.00,VWS V14.01,2013-02-11 02:10:00,
2013-02-10 20:12:00,31.8,31.0,29.32,SSW,194,2.0,2.0,97,0.00,,SKC,0.00,VWS V14.01,2013-02-11 02:12:00,
2013-02-10 20:15:00,32.2,31.7,29.27,SSW,194,1.0,2.0,98,0.00,,SKC,0.00,VWS V14.01,2013-02-11 02:15:00,
2013-02-10 20:17:00,31.8,31.0,29.31,SSW,194,2.0,2.0,97,0.00,,SKC,0.00,VWS V14.01,2013-02-11 02:17:00,
2013-02-10 20:20:00,32.3,31.8,29.27,SSW,194,1.0,2.0,98,0.00,,SKC,0.00,VWS V14.01,2013-02-11 02:20:00,
2013-02-10 20:22:00,31.8,31.0,29.31,SSW,194,2.0,2.0,97,0.00,,SKC,0.00,VWS V14.01,2013-02-11 02:22:00,
2013-02-10 20:25:00,32.3,31.8,29.27,SSW,194,2.0,2.0,98,0.00,,SKC,0.00,VWS V14.01,2013-02-11 02:25:00,
2013-02-10 20:27:00,31.9,31.1,29.31,SSW,194,2.0,2.0,97,0.00,,SKC,0.00,VWS V14.01,2013-02-11 02:27:00,
2013-02-10 20:30:00,32.4,31.9,29.28,SSW,194,1.0,2.0,98,0.00,,SKC,0.00,VWS V14.01,2013-02-11 02:30:00,
2013-02-10 20:32:00,31.9,31.1,29.30,SSW,194,1.0,2.0,97,0.00,,SKC,0.00,VWS V14.01,2013-02-11 02:32:00,
2013-02-10 20:35:00,32.3,31.8,29.28,SSW,194,0.0,1.0,98,0.00,,SKC,0.00,VWS V14.01,2013-02-11 02:35:00,
2013-02-10 20:37:00,32.0,31.2,29.30,SSW,194,1.0,2.0,97,0.00,,SKC,0.00,VWS V14.01,2013-02-11 02:37:00,
2013-02-10 20:40:00,32.3,31.8,29.28,SSW,194,0.0,1.0,98,0.00,,SKC,0.00,VWS V14.01,2013-02-11 02:40:00,
2013-02-10 20:42:00,32.1,31.4,29.30,SSW,194,2.0,2.0,97,0.00,,SKC,0.00,VWS V14.01,2013-02-11 02:42:00,
2013-02-10 20:45:00,32.3,31.8,29.26,SSW,194,0.0,1.0,98,0.00,,SKC,0.00,VWS V14.01,2013-02-11 02:45:00,
2013-02-10 20:47:00,32.1,31.4,29.29,SSW,194,1.0,2.0,97,0.00,,SKC,0.00,VWS V14.01,2013-02-11 02:47:00,
2013-02-10 20:50:00,32.2,31.7,29.26,SSW,194,0.0,1.0,98,0.00,,SKC,0.00,VWS V14.01,2013-02-11 02:50:00,
2013-02-10 20:52:00,32.2,31.5,29.29,SSW,194,1.0,1.0,97,0.00,,SKC,0.00,VWS V14.01,2013-02-11 02:52:00,
2013-02-10 20:55:00,32.2,31.7,29.26,SSW,194,0.0,0.0,98,0.00,,SKC,0.00,VWS V14.01,2013-02-11 02:55:00,
2013-02-10 20:57:00,32.2,31.5,29.29,SSW,194,1.0,1.0,97,0.00,,SKC,0.00,VWS V14.01,2013-02-11 02:57:00,
2013-02-10 21:00:00,32.2,31.7,29.26,SSW,194,0.0,0.0,98,0.00,,SKC,0.00,VWS V14.01,2013-02-11 03:00:00,
2013-02-10 21:02:00,32.2,31.7,29.29,SSW,194,1.0,2.0,98,0.00,,SKC,0.00,VWS V14.01,2013-02-11 03:02:00,
2013-02-10 21:05:00,32.1,31.6,29.26,SSW,194,0.0,0.0,98,0.00,,SKC,0.00,VWS V14.01,2013-02-11 03:05:00,
2013-02-10 21:08:00,32.3,31.8,29.29,SSW,194,1.0,2.0,98,0.00,,SKC,0.00,VWS V14.01,2013-02-11 03:08:00,
2013-02-10 21:10:00,32.1,31.6,29.26,SSW,194,0.0,0.0,98,0.00,,SKC,0.00,VWS V14.01,2013-02-11 03:10:00,
2013-02-10 21:13:00,32.3,31.8,29.29,SSW,194,1.0,2.0,98,0.00,,SKC,0.00,VWS V14.01,2013-02-11 03:13:00,
2013-02-10 21:15:00,32.1,31.6,29.26,SSW,194,0.0,0.0,98,0.00,,SKC,0.00,VWS V14.01,2013-02-11 03:15:00,
2013-02-10 21:18:00,32.2,31.7,29.27,SSW,194,1.0,1.0,98,0.00,,SKC,0.00,VWS V14.01,2013-02-11 03:18:00,
2013-02-10 21:20:00,32.1,31.6,29.26,SSW,194,0.0,0.0,98,0.00,,SKC,0.00,VWS V14.01,2013-02-11 03:20:00,
2013-02-10 21:23:00,32.3,31.8,29.27,SSW,194,1.0,1.0,98,0.00,,SKC,0.00,VWS V14.01,2013-02-11 03:23:00,
2013-02-10 21:25:00,32.1,31.6,29.26,SSW,194,0.0,0.0,98,0.00,,SKC,0.00,VWS V14.01,2013-02-11 03:25:00,
2013-02-10 21:28:00,32.4,31.9,29.27,SSW,194,1.0,2.0,98,0.00,,SKC,0.00,VWS V14.01,2013-02-11 03:28:00,
2013-02-10 21:30:00,32.1,31.6,29.25,SSW,194,0.0,0.0,98,0.00,,SKC,0.00,VWS V14.01,2013-02-11 03:30:00,
2013-02-10 21:33:00,32.3,31.8,29.28,SSW,194,1.0,1.0,98,0.00,,SKC,0.00,VWS V14.01,2013-02-11 03:33:00,
2013-02-10 21:35:00,32.1,31.6,29.25,SSW,194,0.0,0.0,98,0.00,,SKC,0.00,VWS V14.01,2013-02-11 03:35:00,
2013-02-10 21:38:00,32.3,31.8,29.28,SSW,194,0.0,0.0,98,0.00,,SKC,0.00,VWS V14.01,2013-02-11 03:38:00,
2013-02-10 21:40:00,32.1,31.6,29.25,SSW,194,0.0,0.0,98,0.00,,SKC,0.00,VWS V14.01,2013-02-11 03:40:00,
2013-02-10 21:43:00,32.3,31.8,29.28,SSW,194,0.0,1.0,98,0.00,,SKC,0.00,VWS V14.01,2013-02-11 03:43:00,
2013-02-10 21:45:00,32.1,31.6,29.24,SSW,194,0.0,0.0,98,0.00,,SKC,0.00,VWS V14.01,2013-02-11 03:45:00,
2013-02-10 21:48:00,32.2,31.7,29.26,SSW,194,1.0,1.0,98,0.00,,SKC,0.00,VWS V14.01,2013-02-11 03:48:00,
2013-02-10 21:50:00,32.2,31.7,29.24,SSW,194,0.0,0.0,98,0.00,,SKC,0.00,VWS V14.01,2013-02-11 03:50:00,
2013-02-10 21:53:00,32.2,31.7,29.26,SSW,194,0.0,0.0,98,0.00,,SKC,0.00,VWS V14.01,2013-02-11 03:53:00,
2013-02-10 21:55:00,32.2,31.7,29.24,SSW,194,0.0,0.0,98,0.00,,SKC,0.00,VWS V14.01,2013-02-11 03:55:00,
2013-02-10 21:58:00,32.2,31.7,29.26,SSW,194,0.0,0.0,98,0.00,,SKC,0.00,VWS V14.01,2013-02-11 03:58:00,
2013-02-10 22:00:00,32.2,31.7,29.23,SSW,194,0.0,0.0,98,0.00,,SKC,0.00,VWS V14.01,2013-02-11 04:00:00,
2013-02-10 22:03:00,32.1,31.6,29.26,SSW,194,0.0,0.0,98,0.00,,SKC,0.00,VWS V14.01,2013-02-11 04:03:00,
2013-02-10 22:05:00,32.2,31.7,29.23,SSW,194,0.0,0.0,98,0.00,,SKC,0.00,VWS V14.01,2013-02-11 04:05:00,
2013-02-10 22:08:00,32.1,31.6,29.26,SSW,194,0.0,0.0,98,0.00,,SKC,0.00,VWS V14.01,2013-02-11 04:08:00,
2013-02-10 22:10:00,32.3,31.8,29.23,SSW,194,0.0,0.0,98,0.00,,SKC,0.00,VWS V14.01,2013-02-11 04:10:00,
2013-02-10 22:13:00,32.1,31.6,29.26,SSW,194,0.0,0.0,98,0.00,,SKC,0.00,VWS V14.01,2013-02-11 04:13:00,
2013-02-10 22:15:00,32.3,31.8,29.23,SSW,194,0.0,0.0,98,0.00,,SKC,0.00,VWS V14.01,2013-02-11 04:15:00,
2013-02-10 22:18:00,32.1,31.6,29.26,SSW,194,0.0,0.0,98,0.00,,SKC,0.00,VWS V14.01,2013-02-11 04:18:00,
2013-02-10 22:20:00,32.3,31.8,29.23,SSW,194,0.0,0.0,98,0.00,,SKC,0.00,VWS V14.01,2013-02-11 04:20:00,
2013-02-10 22:23:00,32.1,31.6,29.26,SSW,194,0.0,0.0,98,0.00,,SKC,0.00,VWS V14.01,2013-02-11 04:23:00,
2013-02-10 22:25:00,32.3,31.8,29.23,SSW,194,0.0,0.0,98,0.00,,SKC,0.00,VWS V14.01,2013-02-11 04:25:00,
2013-02-10 22:28:00,32.1,31.6,29.26,SSW,194,0.0,0.0,98,0.00,,SKC,0.00,VWS V14.01,2013-02-11 04:28:00,
2013-02-10 22:30:00,32.3,31.8,29.22,SSW,194,0.0,0.0,98,0.00,,SKC,0.00,VWS V14.01,2013-02-11 04:30:00,
2013-02-10 22:33:00,32.1,31.6,29.25,SSW,194,0.0,0.0,98,0.00,,SKC,0.00,VWS V14.01,2013-02-11 04:33:00,
2013-02-10 22:35:00,32.3,31.8,29.22,SSW,194,0.0,0.0,98,0.00,,SKC,0.00,VWS V14.01,2013-02-11 04:35:00,
2013-02-10 22:38:00,32.1,31.6,29.25,SSW,194,0.0,0.0,98,0.00,,SKC,0.00,VWS V14.01,2013-02-11 04:38:00,
2013-02-10 22:40:00,32.3,31.8,29.22,SSW,194,0.0,1.0,98,0.00,,SKC,0.00,VWS V14.01,2013-02-11 04:40:00,
2013-02-10 22:43:00,32.1,31.6,29.25,SSW,194,0.0,0.0,98,0.00,,SKC,0.00,VWS V14.01,2013-02-11 04:43:00,
2013-02-10 22:45:00,32.3,31.8,29.21,SSW,194,0.0,0.0,98,0.00,,SKC,0.00,VWS V14.01,2013-02-11 04:45:00,
2013-02-10 22:48:00,32.1,31.6,29.24,SSW,194,0.0,0.0,98,0.00,,SKC,0.00,VWS V14.01,2013-02-11 04:48:00,
2013-02-10 22:50:00,32.4,31.9,29.21,SSW,194,0.0,0.0,98,0.00,,SKC,0.00,VWS V14.01,2013-02-11 04:50:00,
2013-02-10 22:53:00,32.2,31.7,29.24,SSW,194,0.0,0.0,98,0.00,,SKC,0.00,VWS V14.01,2013-02-11 04:53:00,
2013-02-10 22:55:00,32.5,32.0,29.21,SSW,194,0.0,0.0,98,0.00,,SKC,0.00,VWS V14.01,2013-02-11 04:55:00,
2013-02-10 22:58:00,32.2,31.7,29.24,SSW,194,0.0,0.0,98,0.00,,SKC,0.00,VWS V14.01,2013-02-11 04:58:00,
2013-02-10 23:00:00,32.2,31.7,29.24,SSW,194,0.0,0.0,98,0.00,,SKC,0.00,VWS V14.01,2013-02-11 05:00:00,
2013-02-10 23:05:00,32.2,31.7,29.23,SSW,194,0.0,0.0,98,0.00,,SKC,0.00,VWS V14.01,2013-02-11 05:05:00,
2013-02-10 23:10:00,32.2,31.7,29.23,SSW,194,0.0,0.0,98,0.00,,SKC,0.00,VWS V14.01,2013-02-11 05:10:00,
2013-02-10 23:15:00,32.2,31.7,29.23,SSW,194,0.0,0.0,98,0.00,,SKC,0.00,VWS V14.01,2013-02-11 05:15:00,
2013-02-10 23:20:00,32.3,31.8,29.23,SSW,194,0.0,0.0,98,0.00,,SKC,0.00,VWS V14.01,2013-02-11 05:20:00,
2013-02-10 23:25:00,32.3,31.8,29.23,SSW,194,0.0,0.0,98,0.00,,SKC,0.00,VWS V14.01,2013-02-11 05:25:00,
2013-02-10 23:30:00,32.3,31.8,29.23,SSW,194,0.0,0.0,98,0.00,,SKC,0.00,VWS V14.01,2013-02-11 05:30:00,
2013-02-10 23:35:00,32.5,32.0,29.20,SSW,194,0.0,0.0,98,0.00,,SKC,0.00,VWS V14.01,2013-02-11 05:35:00,
2013-02-10 23:36:00,32.3,31.8,29.22,SSW,194,0.0,0.0,98,0.00,,SKC,0.00,VWS V14.01,2013-02-11 05:36:00,
2013-02-10 23:40:00,32.5,32.0,29.20,SSW,194,0.0,0.0,98,0.00,,SKC,0.00,VWS V14.01,2013-02-11 05:40:00,
2013-02-10 23:41:00,32.3,31.8,29.22,SSW,194,0.0,1.0,98,0.00,,SKC,0.00,VWS V14.01,2013-02-11 05:41:00,
2013-02-10 23:45:00,32.5,32.0,29.19,SSW,194,0.0,0.0,98,0.00,,SKC,0.00,VWS V14.01,2013-02-11 05:45:00,
2013-02-10 23:46:00,32.3,31.8,29.22,SSW,194,0.0,0.0,98,0.00,,SKC,0.00,VWS V14.01,2013-02-11 05:46:00,
2013-02-10 23:50:00,32.5,32.0,29.19,SSW,194,0.0,0.0,98,0.00,,SKC,0.00,VWS V14.01,2013-02-11 05:50:00,
2013-02-10 23:51:00,32.4,31.9,29.21,SSW,194,0.0,0.0,98,0.00,,SKC,0.00,VWS V14.01,2013-02-11 05:51:00,
2013-02-10 23:55:00,32.5,32.0,29.19,SSW,194,0.0,0.0,98,0.00,,SKC,0.00,VWS V14.01,2013-02-11 05:55:00,
2013-02-10 23:56:00,32.5,32.0,29.21,SSW,194,0.0,0.0,98,0.00,,SKC,0.00,VWS V14.01,2013-02-11 05:56:00,